TimeMST,TemperatureF,Dew PointF,Humidity,Sea Level PressureIn,VisibilityMPH,Wind Direction,Wind SpeedMPH,Gust SpeedMPH,PrecipitationIn,Events,Conditions,WindDirDegrees,DateUTC
12:15 AM,26.6,24.8,93,29.92,10.0,SW,4.6,-,N/A,,Overcast,220,2013-03-07 07:15:00
12:55 AM,23.0,21.2,93,29.92,10.0,Calm,Calm,-,N/A,,Mostly Cloudy,0,2013-03-07 07:55:00
1:15 AM,23.0,21.2,93,29.92,10.0,ESE,5.8,-,N/A,,Partly Cloudy,120,2013-03-07 08:15:00
1:35 AM,24.8,21.2,86,29.93,10.0,South,9.2,-,N/A,,Clear,170,2013-03-07 08:35:00
1:55 AM,24.8,19.4,80,29.94,10.0,SSE,8.1,-,N/A,,Clear,160,2013-03-07 08:55:00
2:15 AM,26.6,21.2,80,29.93,10.0,South,10.4,-,N/A,,Clear,170,2013-03-07 09:15:00
2:35 AM,24.8,21.2,86,29.94,10.0,South,8.1,-,N/A,,Clear,170,2013-03-07 09:35:00
2:55 AM,24.8,19.4,80,29.93,10.0,South,10.4,-,N/A,,Clear,180,2013-03-07 09:55:00
3:15 AM,23.0,19.4,86,29.93,10.0,WSW,3.5,-,N/A,,Clear,250,2013-03-07 10:15:00
3:35 AM,24.8,19.4,80,29.93,10.0,Calm,Calm,-,N/A,,Clear,0,2013-03-07 10:35:00
3:55 AM,23.0,19.4,86,29.94,10.0,Calm,Calm,-,N/A,,Clear,0,2013-03-07 10:55:00
4:15 AM,24.8,19.4,80,29.95,10.0,South,3.5,-,N/A,,Clear,190,2013-03-07 11:15:00
4:35 AM,24.8,19.4,80,29.95,10.0,WSW,3.5,-,N/A,,Clear,250,2013-03-07 11:35:00
4:55 AM,21.2,19.4,93,29.96,10.0,WSW,4.6,-,N/A,,Clear,240,2013-03-07 11:55:00
5:15 AM,23.0,19.4,86,29.97,10.0,WSW,4.6,-,N/A,,Partly Cloudy,250,2013-03-07 12:15:00
5:35 AM,19.4,17.6,93,29.97,10.0,WSW,6.9,-,N/A,,Scattered Clouds,250,2013-03-07 12:35:00
5:55 AM,19.4,17.6,93,29.97,10.0,WSW,9.2,-,N/A,,Scattered Clouds,240,2013-03-07 12:55:00
6:15 AM,19.4,17.6,93,29.98,10.0,Calm,Calm,-,N/A,,Partly Cloudy,0,2013-03-07 13:15:00
6:35 AM,21.2,17.6,86,29.98,10.0,ESE,3.5,-,N/A,,Scattered Clouds,110,2013-03-07 13:35:00
6:54 AM,17.6,15.8,93,29.99,10.0,Calm,Calm,-,N/A,,Scattered Clouds,0,2013-03-07 13:54:00
7:52 AM,15.8,12.2,86,30.01,10.0,North,3.5,-,N/A,,Mostly Cloudy,350,2013-03-07 14:52:00
8:51 AM,19.4,15.8,86,30.02,10.0,North,8.1,-,N/A,,Clear,360,2013-03-07 15:51:00
9:54 AM,21.2,17.6,86,30.02,10.0,North,4.6,-,N/A,,Clear,10,2013-03-07 16:54:00
11:17 AM,24.8,19.4,80,30.02,10.0,North,5.8,-,N/A,,Clear,10,2013-03-07 18:17:00
12:01 PM,26.6,19.4,74,30.02,10.0,North,4.6,-,N/A,,Clear,10,2013-03-07 19:01:00
12:52 PM,28.4,19.4,69,30.00,10.0,Calm,Calm,-,N/A,,Scattered Clouds,0,2013-03-07 19:52:00
1:53 PM,30.2,19.4,64,29.97,10.0,East,3.5,-,N/A,,Scattered Clouds,90,2013-03-07 20:53:00
2:55 PM,33.8,15.8,48,29.95,10.0,Calm,Calm,-,N/A,,Scattered Clouds,0,2013-03-07 21:55:00
3:57 PM,32.0,17.6,55,29.95,10.0,Calm,Calm,-,N/A,,Mostly Cloudy,0,2013-03-07 22:57:00
4:54 PM,33.8,19.4,56,29.96,8.0,Calm,Calm,-,N/A,,Overcast,0,2013-03-07 23:54:00
5:51 PM,33.8,19.4,56,29.97,7.0,Calm,Calm,-,N/A,,Overcast,0,2013-03-08 00:51:00
6:51 PM,30.2,26.6,86,29.98,4.0,Calm,Calm,-,N/A,Snow,Light Snow,0,2013-03-08 01:51:00
7:51 PM,26.6,24.8,93,29.97,8.0,Calm,Calm,-,N/A,,Mostly Cloudy,0,2013-03-08 02:51:00
8:51 PM,26.6,26.6,100,29.97,10.0,Calm,Calm,-,N/A,,Mostly Cloudy,0,2013-03-08 03:51:00
8:55 PM,26.6,26.6,100,29.97,-9999.0,Calm,Calm,-,N/A,,Mostly Cloudy,0,2013-03-08 03:55:00
9:15 PM,24.8,24.8,100,29.97,10.0,Calm,Calm,-,N/A,,Scattered Clouds,0,2013-03-08 04:15:00
9:35 PM,26.6,26.6,100,29.97,10.0,Calm,Calm,-,N/A,,Mostly Cloudy,0,2013-03-08 04:35:00
9:55 PM,24.8,23.0,93,29.97,-9999.0,Calm,Calm,-,N/A,,Unknown,0,2013-03-08 04:55:00
10:35 PM,24.8,23.0,93,29.96,10.0,Calm,Calm,-,N/A,,Mostly Cloudy,0,2013-03-08 05:35:00
10:55 PM,24.8,23.0,93,29.96,10.0,Calm,Calm,-,N/A,,Mostly Cloudy,0,2013-03-08 05:55:00
11:15 PM,24.8,23.0,93,29.96,10.0,ENE,5.8,-,N/A,,Mostly Cloudy,60,2013-03-08 06:15:00
11:35 PM,19.4,19.4,100,29.95,10.0,NNE,4.6,-,N/A,,Mostly Cloudy,30,2013-03-08 06:35:00
11:55 PM,19.4,17.6,93,29.95,10.0,North,5.8,-,N/A,,Overcast,10,2013-03-08 06:55:00